STARLINK-31574 (59543 NORAD) Tracking and Keplerian Element Data

This shows tracking and keplerian element data for the satellite.

Feedback or suggestion? Click here.




ElementValue
Catalog59543
NameSTARLINK-31574
Epoch Orbit780
Epoch Day159.90502727
Epoch Year2024
RAAN28.182
Inclination43.0023
Eccentricity0.000152
Argument of Perigee249.2191
Mean Anonmoly110.8503
Mean Motion15.40681935
Decay Rate2.869E-05
L11 59543U 24074K 24159.90502727 .00002869 00000+0 75969-4 0 9990
L22 59543 43.0023 28.1820 0001520 249.2191 110.8503 15.40681935 7802



Live tracking and technical data element details for STARLINK-31574 (NORAD 59543). STARLINK-31574 can be tracked NOW for your location showing map with azimuth and elevation plus other details from your city location.







IsCatalogInMostPopularTable: catalog: 59543, numindb: 15
Update: records affected: 1



GetName: 59543 STARLINK-31574

Hit Count: updated at: Fri, 14 Jun 2024 17:48:05 GMT